Cloud_Cover
0 0 0 0 0 0 0 0 0 0 0 0 0 0 0 0 0 0 0 8 48 48 32 20 24 36 56 88 92 92 92 92 92 92 92 92 92 92 92 92 92 92 92 92 92 92 92 92 92 92 92 88 92 88 88 92 92 92 92 92 92 88 80 68 76 80 88 92 92
0 0 0 0 0 0 0 0 0 0 0 0 8 12 8 0 0 0 0 12 32 36 36 32 32 36 56 64 88 92 92 92 92 92 92 92 88 92 92 92 92 88 80 92 80 88 92 92 92 92 92 92 92 92 92 88 92 92 92 92 92 92 92 92 80 88 92 92 92
0 0 0 0 0 0 0 0 0 0 0 12 32 24 12 0 0 0 8 32 44 56 64 64 44 36 36 44 56 80 92 92 92 92 92 92 92 92 92 92 80 80 92 92 76 80 92 92 92 92 92 92 92 92 92 92 92 92 92 92 92 92 92 88 92 92 92 92 92
0 0 0 0 0 0 0 0 0 0 8 24 32 24 20 8 0 0 8 36 48 64 64 56 44 36 44 48 44 64 80 92 92 92 92 92 92 92 92 88 80 80 80 92 92 92 92 92 92 92 92 92 92 92 92 92 92 92 92 92 92 92 92 88 92 92 92 92 92
0 0 0 0 0 0 0 0 0 0 8 24 24 24 20 12 0 0 8 32 48 48 48 64 44 44 56 68 48 56 76 92 92 92 92 92 92 92 92 92 92 92 92 92 92 92 92 92 92 92 92 92 92 92 92 92 92 92 92 92 92 92 92 92 92 92 92 92 92
20 20 12 8 20 12 8 12 8 0 8 24 36 24 12 0 0 8 20 32 24 24 36 68 56 64 80 92 76 68 76 92 92 92 92 92 92 92 92 92 92 92 92 92 92 88 88 92 92 92 92 88 92 88 80 80 92 92 92 92 92 92 92 92 92 92 92 92 92
8 12 20 20 12 12 8 12 12 12 12 8 32 24 12 0 0 8 12 12 12 12 32 68 80 88 80 92 92 80 76 88 92 92 92 92 92 92 92 92 92 92 92 92 92 92 92 92 92 92 92 92 92 92 92 92 92 92 92 92 92 92 92 92 92 92 92 92 92
8 12 20 20 20 20 20 20 20 20 12 0 20 24 20 8 12 12 12 8 12 8 8 8 68 80 76 76 68 76 92 92 92 92 92 92 92 92 92 92 92 92 92 92 92 92 92 92 80 88 92 92 92 92 92 92 92 92 88 68 88 92 92 92 92 92 92 92 92
20 8 12 24 32 36 36 36 36 24 12 8 32 24 20 8 32 36 24 20 8 0 0 8 36 76 92 88 68 64 68 92 92 92 92 92 92 92 92 92 92 92 92 92 92 92 92 92 92 92 92 92 92 92 92 92 92 92 88 76 88 92 92 92 88 88 92 92 92
24 20 20 32 44 48 48 44 44 32 12 12 20 20 12 8 56 64 48 32 20 8 0 0 32 68 92 92 68 64 68 88 92 92 92 92 92 92 92 92 92 92 92 92 92 92 92 92 92 92 92 92 92 92 92 92 92 92 92 92 80 88 92 92 92 92 92 92 92
12 12 20 36 56 56 48 48 44 24 12 20 12 8 20 48 76 80 80 68 48 24 8 0 24 68 92 92 80 68 64 56 64 68 76 68 88 92 92 92 92 92 92 92 92 92 92 92 92 92 92 92 92 92 92 88 92 92 92 92 92 92 92 92 92 92 92 92 92
20 20 20 32 44 48 48 48 44 24 12 20 12 8 20 68 68 80 92 88 68 44 20 0 24 64 92 92 92 80 64 48 48 56 64 48 76 88 92 88 88 88 88 88 92 92 92 92 92 92 92 92 92 92 92 80 92 92 92 92 92 92 92 92 92 92 92 80 92
24 24 24 24 24 32 36 36 36 24 12 12 12 8 20 68 76 88 92 76 80 76 48 12 20 56 88 92 92 88 76 56 44 44 48 32 44 68 88 76 64 64 68 76 88 92 92 92 92 92 92 92 92 92 92 92 92 92 92 88 92 92 92 92 92 92 92 92 92
24 24 24 24 20 20 24 24 20 20 12 8 12 8 20 68 80 88 80 76 80 80 68 24 12 36 76 92 92 88 80 68 56 48 48 48 56 68 80 76 80 88 88 92 92 92 92 92 92 92 92 92 92 92 92 92 92 92 88 80 76 80 92 92 92 92 92 92 92
24 24 24 24 20 20 20 20 20 12 12 8 12 8 20 48 68 68 64 64 64 56 44 36 32 56 76 80 92 92 92 92 80 68 68 76 48 56 68 92 92 92 92 92 92 92 92 88 92 92 92 92 88 92 92 80 92 88 80 76 56 68 88 92 92 92 92 92 92
24 24 24 24 20 20 20 20 24 20 12 8 8 12 32 56 64 56 48 36 36 48 68 68 64 64 68 68 80 88 92 92 92 92 88 80 56 64 80 92 92 92 92 92 92 92 92 80 80 80 80 92 80 88 88 68 76 68 64 68 76 88 92 92 92 92 92 92 92
32 32 24 24 24 24 24 24 24 20 8 8 8 24 56 68 64 48 32 12 24 64 92 92 88 76 76 88 80 80 80 80 92 92 88 68 68 68 76 88 92 92 92 92 88 92 92 88 80 80 88 92 88 88 76 68 68 76 76 92 92 92 92 92 92 92 92 92 92
32 24 24 20 20 20 24 20 12 12 8 12 12 36 64 76 56 48 44 32 56 80 92 92 92 80 76 80 80 88 88 80 88 92 88 48 64 68 76 88 92 92 88 68 76 88 88 80 88 92 92 92 92 88 80 80 88 88 92 92 92 92 92 92 92 92 92 100 100
24 24 24 20 12 12 20 8 8 8 12 12 32 56 68 76 48 56 68 64 88 92 92 88 80 76 68 64 68 80 92 92 68 64 56 24 32 48 76 92 92 88 76 48 64 68 76 68 68 76 88 92 92 92 92 92 92 92 92 92 92 92 92 92 92 92 92 92 92
20 12 20 12 12 12 12 8 8 12 24 44 48 64 76 76 36 44 68 76 88 88 80 76 68 68 68 64 64 68 76 64 32 24 20 12 32 56 80 92 92 88 76 56 68 68 64 64 64 64 76 88 92 92 92 92 92 92 92 92 92 92 92 92 92 92 92 92 92
24 12 12 12 12 8 8 8 0 20 44 48 48 64 76 48 20 12 44 92 92 88 68 64 64 68 76 68 64 56 44 24 20 8 20 68 80 88 92 92 92 92 88 76 88 88 80 80 80 80 88 92 92 92 92 92 92 92 92 92 92 92 92 92 92 92 92 92 92
32 32 24 8 8 8 8 8 0 32 64 48 44 48 48 32 8 8 32 92 92 88 76 76 76 80 88 76 56 44 32 12 8 36 76 92 68 80 92 92 92 92 92 92 92 92 92 92 92 92 92 92 92 92 92 92 92 92 92 92 88 92 92 92 92 92 92 92 92
20 20 12 8 8 8 8 8 36 64 76 76 64 56 48 48 36 56 80 92 92 92 92 92 92 92 88 88 56 32 12 8 32 68 92 92 56 68 92 92 92 92 92 92 92 92 92 92 92 92 92 92 92 92 92 92 92 92 92 88 88 92 92 92 92 92 92 92 92
8 8 12 8 8 8 8 8 36 56 64 68 68 64 68 80 88 92 92 92 92 92 92 92 92 88 88 88 48 24 8 0 68 92 92 92 88 88 92 92 92 92 92 92 92 92 92 92 92 92 92 92 88 88 92 92 92 92 92 92 92 92 92 92 92 92 92 100 92
12 20 24 12 8 8 12 32 36 44 48 68 88 92 92 92 92 92 92 92 92 92 92 92 92 88 80 80 56 24 24 80 92 92 92 92 92 92 92 92 92 92 92 88 76 76 68 56 80 76 68 92 88 88 88 92 92 92 92 92 92 92 92 92 92 92 92 100 92
64 32 12 8 8 12 24 44 32 36 56 92 92 92 92 92 92 92 92 92 92 92 92 92 92 80 76 64 32 24 48 92 92 92 92 92 80 80 92 92 92 80 68 64 64 64 56 48 56 76 88 80 88 88 80 68 88 92 92 92 88 88 88 92 92 92 92 92 92
80 56 24 44 32 32 36 32 36 44 64 92 92 92 92 92 92 92 92 92 88 88 88 80 80 76 56 32 20 12 32 92 92 92 92 92 80 88 92 92 80 80 88 80 80 68 56 48 68 80 88 88 80 88 92 92 92 92 92 92 92 92 92 92 92 92 92 92 92
92 92 92 92 68 48 32 24 48 76 92 92 92 92 92 92 92 92 92 92 88 80 80 80 80 56 32 12 12 24 48 92 92 92 92 92 92 92 92 76 80 80 80 88 88 80 80 76 88 88 80 68 80 88 92 92 92 88 92 92 92 92 92 92 92 92 92 92 92
92 92 92 92 92 56 20 8 76 92 92 92 92 92 92 92 92 92 92 92 92 80 76 92 64 32 20 24 12 48 92 92 92 92 92 92 92 88 80 88 88 88 92 92 88 88 88 88 92 92 92 92 92 92 92 92 92 92 92 92 92 92 92 92 92 92 92 92 92
92 92 92 92 68 36 12 12 76 92 92 92 92 92 92 92 92 92 92 92 80 88 80 36 24 32 36 24 80 92 92 92 48 56 80 92 92 92 92 92 92 92 92 92 88 88 92 92 92 92 92 92 92 92 92 92 92 92 92 92 92 92 92 92 92 92 92 92 92
92 92 92 92 44 24 24 32 80 92 92 92 92 92 92 92 92 92 92 92 68 44 24 20 32 32 36 56 80 92 80 36 24 56 88 92 92 92 92 88 88 92 92 92 92 92 92 92 92 92 92 92 92 92 92 92 92 92 92 88 92 92 92 92 92 92 92 92 92
92 92 92 92 56 44 56 88 92 92 92 92 92 92 92 92 92 92 92 92 48 24 24 32 32 36 48 68 64 56 68 92 92 92 92 92 92 92 92 88 92 92 92 92 92 92 92 92 92 92 92 92 92 92 92 92 92 92 92 92 92 92 92 92 92 92 92 92 92
92 92 92 92 68 76 88 92 92 92 92 92 92 92 92 92 92 92 92 92 88 68 44 36 44 56 76 92 92 92 92 92 92 92 92 92 92 92 92 92 92 92 92 92 92 92 92 92 92 92 92 92 92 88 80 92 92 92 92 92 92 92 92 92 92 92 92 92 92
92 92 92 92 92 92 92 92 92 92 92 92 92 92 92 92 92 92 92 92 92 92 92 92 92 92 92 92 92 92 92 92 92 92 92 92 92 92 92 92 92 92 92 92 92 92 92 92 92 92 92 92 92 92 92 92 92 92 92 92 92 92 92 92 92 92 92 92 92
92 92 92 92 92 92 92 92 92 92 92 92 92 92 92 92 92 92 92 92 92 92 92 92 92 92 92 92 92 92 92 92 92 92 92 92 88 88 92 92 92 92 92 92 92 92 92 92 92 92 92 92 92 92 92 92 92 92 92 92 92 92 92 92 92 92 92 92 92
92 92 92 92 92 92 92 92 92 92 92 92 92 92 92 92 92 92 92 92 92 92 92 92 92 92 92 92 92 92 92 92 92 92 92 92 92 92 92 92 92 92 92 92 92 92 92 92 92 92 92 92 92 92 92 92 92 92 92 92 92 92 92 92 92 92 92 92 92
88 92 92 92 92 92 92 92 92 92 92 92 92 92 92 92 92 92 92 92 88 92 92 92 92 92 92 92 92 92 92 92 92 92 92 92 92 92 92 92 92 92 92 92 92 92 92 92 92 92 92 92 92 92 92 92 92 92 92 92 92 92 92 92 92 92 92 92 92
76 88 92 92 92 92 92 92 92 92 92 92 92 92 92 92 92 92 92 92 80 88 92 92 92 92 92 92 92 92 92 92 92 92 92 92 92 92 92 92 92 92 92 92 92 92 92 92 92 92 92 92 92 92 92 92 92 92 92 92 92 92 92 92 92 92 92 92 92
68 80 92 92 92 92 92 92 92 92 92 92 92 92 92 92 92 92 92 92 92 92 92 92 92 92 92 92 92 92 92 92 92 92 92 92 92 92 92 92 92 92 92 92 92 92 92 92 92 92 92 92 92 92 92 92 92 92 92 92 92 92 92 92 92 92 92 92 92
80 92 92 92 92 92 92 92 92 92 92 92 92 92 92 92 92 92 92 92 92 92 92 92 92 92 92 92 92 92 92 92 92 92 92 92 92 92 92 92 92 92 92 92 92 92 92 92 92 92 92 92 92 92 92 92 92 92 92 92 92 92 92 92 92 92 92 92 92
88 92 92 92 92 92 92 92 92 92 92 92 92 92 92 92 92 92 92 92 92 92 92 92 92 92 92 92 92 92 92 92 92 92 92 92 92 92 92 92 92 92 92 92 92 92 92 92 92 92 92 92 92 92 92 92 92 92 92 92 92 92 92 92 92 92 92 92 92